Helicity
147 131 123 120 112 105 104 104 119 129 144 163 176 177 172 197 226 233 257 261 223 191
127 118 110 112 107 107 113 117 126 141 161 177 188 192 193 201 223 232 223 203 185 187
89 88 94 105 120 127 134 144 151 157 164 174 182 176 165 168 171 179 186 191 198 183
80 93 107 121 136 150 158 171 170 167 164 166 161 166 165 178 180 191 196 198 189 191
79 95 115 138 159 169 173 172 168 163 163 162 166 175 179 182 183 179 177 166 168 162
90 101 125 144 157 166 147 151 171 176 181 179 168 168 168 165 164 159 156 149 140 134
87 105 126 138 138 134 131 129 165 182 165 153 146 134 121 123 130 136 133 137 135 128
91 109 121 126 119 118 125 116 116 129 130 112 94 89 97 110 120 121 118 107 94 109
100 105 113 113 108 107 110 119 113 110 104 102 87 93 87 56 42 43 49 70 78 87
78 88 93 97 106 113 100 104 104 94 86 91 70 51 53 62 53 58 66 68 72 83
69 71 77 79 89 92 81 74 79 93 91 74 55 54 52 59 47 57 61 67 67 78
67 64 48 55 59 61 63 73 79 76 60 53 44 41 54 50 44 46 60 58 57 63
56 46 43 41 45 45 47 51 49 47 40 28 19 48 49 43 37 45 45 46 53 65
59 54 43 51 47 44 41 32 49 41 23 25 49 40 43 44 40 42 42 46 50 53
Wind_Speed
51 52 53 54 54 54 54 56 57 55 52 51 49 46 43 39 36 34 32 34 34 40
50 52 53 52 51 51 52 53 53 52 50 48 46 42 40 38 37 35 35 37 39 40
52 52 52 51 51 50 50 50 49 48 45 43 42 41 38 37 36 36 37 38 39 38
55 54 53 51 50 49 48 48 47 45 43 42 41 39 38 37 36 35 37 38 36 37
54 53 51 50 48 46 47 45 44 41 40 40 38 38 37 37 35 34 34 36 36 38
52 51 50 48 46 44 44 44 40 38 36 36 36 34 34 32 33 33 34 35 36 36
48 45 43 41 41 40 37 36 33 31 30 31 31 31 30 30 30 32 33 34 36 38
43 39 37 36 35 33 30 29 27 25 26 27 28 29 29 29 30 31 32 33 36 39
36 34 32 29 29 27 26 23 23 24 23 25 27 28 29 29 30 31 30 31 34 35
32 32 30 25 23 23 21 20 19 20 22 24 26 28 30 31 32 32 31 33 33 34
30 30 27 22 20 17 17 17 18 19 21 22 26 28 30 31 32 32 33 34 34 36
23 20 19 17 15 15 14 15 17 17 19 22 26 28 30 31 32 32 34 34 35 37
20 17 18 16 13 14 14 14 15 17 20 22 25 28 30 31 32 33 34 35 36 39
21 18 14 11 12 12 13 14 16 18 20 23 27 29 28 29 32 34 35 37 39 39
Wind_Direction
303 304 304 306 308 309 310 311 313 314 317 319 321 324 327 328 326 325 323 320 322 324
304 305 305 307 310 311 312 313 314 316 318 321 325 329 331 330 329 329 329 327 326 327
302 305 306 308 308 311 313 315 317 320 324 328 330 331 333 333 333 332 332 331 331 332
300 302 303 304 307 310 313 316 318 322 325 328 330 333 334 335 335 336 336 336 338 338
301 301 302 304 306 311 311 316 319 322 324 326 329 332 335 336 340 341 341 340 342 339
302 301 301 303 306 310 313 316 319 321 324 328 331 335 341 346 348 349 350 349 348 347
304 305 306 308 309 313 318 320 324 330 334 336 340 346 350 354 357 357 357 358 357 356
306 308 310 312 315 318 323 327 331 337 342 345 348 353 357 1 3 5 5 8 10 9
312 313 316 317 318 324 326 334 337 341 351 358 1 6 9 13 15 16 17 15 13 11
309 311 312 319 323 328 329 337 345 352 356 0 7 16 20 21 22 22 19 14 12 8
305 305 307 313 321 334 338 343 346 349 356 7 8 14 18 20 19 18 13 11 8 4
312 315 312 319 325 327 334 336 337 350 4 7 7 13 17 19 17 15 8 7 5 2
307 311 308 311 322 323 326 330 344 356 359 7 10 12 16 18 19 12 7 4 1 358
299 304 313 328 326 321 323 331 338 350 356 2 4 10 17 20 16 8 3 360 356 356